User: anonymous
Location: South Tamworth Observatory
(43.8246°N, 71.3026°W)
Time: 19:48:47
(UTC-04:00)
Language:

Cosmos 1844 - Orbit

View from above orbital plane
View from above orbital plane
View from above satellite
View from above satellite

Ground track
Ground track

The orbit data is extracted from the following two-line orbital elements,

1 17973U 87041A   14245.10810363  .00000283  00000-0  17374-3 0  8161
2 17973 070.8965 261.1907 0032206 217.6400 198.2703 14.13929179409091
Epoch (UTC): 02 September 2014 02:35:40
Eccentricity: 0.0032206
inclination: 70.8965°
perigee height: 822 km
apogee height: 869 km
right ascension of ascending node: 261.1907°
argument of perigee: 217.6400°
revolutions per day: 14.13929179
mean anomaly at epoch: 198.2703°
orbit number at epoch: 40909

The dashed part of the orbit path shows where the satellite is in the earth's shadow,  

DLR